TimeCST,TemperatureF,Dew PointF,Humidity,Sea Level PressureIn,VisibilityMPH,Wind Direction,Wind SpeedMPH,Gust SpeedMPH,PrecipitationIn,Events,Conditions,WindDirDegrees,DateUTC
12:15 AM,71.6,62.6,73,29.69,10.0,South,16.1,28.8,N/A,,Mostly Cloudy,180,2013-01-30 06:15:00
12:35 AM,71.6,62.6,73,29.69,10.0,South,15.0,25.3,N/A,,Mostly Cloudy,180,2013-01-30 06:35:00
12:55 AM,71.6,62.6,73,29.66,10.0,SSE,20.7,28.8,N/A,,Mostly Cloudy,160,2013-01-30 06:55:00
1:15 AM,69.8,64.4,83,29.67,7.0,South,12.7,27.6,N/A,Rain,Light Rain,170,2013-01-30 07:15:00
1:55 AM,71.6,64.4,78,29.66,10.0,South,11.5,23.0,N/A,,Overcast,170,2013-01-30 07:55:00
2:15 AM,71.6,64.4,78,29.65,10.0,South,11.5,24.2,N/A,,Overcast,190,2013-01-30 08:15:00
2:35 AM,71.6,64.4,78,29.64,10.0,South,15.0,28.8,N/A,,Overcast,170,2013-01-30 08:35:00
2:55 AM,69.8,64.4,83,29.63,10.0,South,13.8,26.5,N/A,Rain,Light Rain,180,2013-01-30 08:55:00
3:15 AM,69.8,64.4,83,29.62,10.0,South,13.8,23.0,N/A,,Mostly Cloudy,180,2013-01-30 09:15:00
3:55 AM,69.8,64.4,83,29.59,10.0,South,11.5,21.9,N/A,,Overcast,170,2013-01-30 09:55:00
4:15 AM,59.0,55.4,88,29.64,10.0,West,12.7,24.2,0.01,Rain,Light Rain,280,2013-01-30 10:15:00
4:35 AM,55.4,53.6,94,29.66,2.0,WNW,6.9,23.0,0.38,Rain,Heavy Rain,290,2013-01-30 10:35:00
4:55 AM,55.4,53.6,94,29.66,5.0,WNW,4.6,-,0.49,Rain-Thunderstorm,Light Thunderstorms and Rain,290,2013-01-30 10:55:00
5:15 AM,55.4,53.6,94,29.67,5.0,West,3.5,-,0.10,Rain,Heavy Rain,270,2013-01-30 11:15:00
5:35 AM,55.4,53.6,94,29.66,5.0,Calm,Calm,-,0.16,Rain,Rain,0,2013-01-30 11:35:00
5:55 AM,53.6,53.6,100,29.66,7.0,Calm,Calm,-,0.20,Rain,Heavy Rain,0,2013-01-30 11:55:00
6:15 AM,53.6,51.8,94,29.67,5.0,West,6.9,-,0.08,Rain,Heavy Rain,270,2013-01-30 12:15:00
6:35 AM,53.6,51.8,94,29.66,5.0,West,5.8,-,0.17,Rain,Rain,270,2013-01-30 12:35:00
6:55 AM,51.8,51.8,100,29.65,7.0,West,3.5,-,0.25,Rain,Rain,270,2013-01-30 12:55:00
7:15 AM,51.8,51.8,100,29.64,10.0,West,3.5,-,0.02,Rain,Light Rain,260,2013-01-30 13:15:00
7:35 AM,51.8,51.8,100,29.66,10.0,SW,3.5,-,0.03,Rain,Light Rain,230,2013-01-30 13:35:00
7:55 AM,51.8,51.8,100,29.66,10.0,SSW,3.5,-,0.04,Rain,Light Rain,200,2013-01-30 13:55:00
8:15 AM,51.8,51.8,100,29.64,10.0,Calm,Calm,-,N/A,,Overcast,0,2013-01-30 14:15:00
8:35 AM,51.8,51.8,100,29.66,10.0,Calm,Calm,-,N/A,,Overcast,0,2013-01-30 14:35:00
8:55 AM,51.8,51.8,100,29.66,10.0,SW,4.6,-,N/A,,Overcast,220,2013-01-30 14:55:00
9:15 AM,51.8,51.8,100,29.68,10.0,SSW,4.6,-,N/A,,Overcast,210,2013-01-30 15:15:00
9:35 AM,53.6,51.8,94,29.66,10.0,Calm,Calm,-,N/A,,Overcast,0,2013-01-30 15:35:00
9:55 AM,53.6,51.8,94,29.67,10.0,SSW,6.9,-,N/A,,Overcast,210,2013-01-30 15:55:00
10:15 AM,53.6,50.0,88,29.66,10.0,SSW,3.5,-,N/A,,Overcast,210,2013-01-30 16:15:00
10:35 AM,53.6,50.0,88,29.67,10.0,SSW,4.6,-,N/A,,Overcast,210,2013-01-30 16:35:00
10:55 AM,53.6,50.0,88,29.66,10.0,SW,5.8,-,N/A,,Overcast,220,2013-01-30 16:55:00
11:15 AM,53.6,51.8,94,29.67,10.0,SSW,4.6,-,N/A,,Overcast,210,2013-01-30 17:15:00
11:35 AM,53.6,50.0,88,29.67,10.0,SW,5.8,-,N/A,,Overcast,220,2013-01-30 17:35:00
11:55 AM,55.4,50.0,82,29.67,10.0,SW,6.9,-,N/A,,Overcast,230,2013-01-30 17:55:00
12:15 PM,55.4,48.2,77,29.66,10.0,WSW,8.1,-,N/A,,Overcast,240,2013-01-30 18:15:00
12:35 PM,55.4,48.2,77,29.66,10.0,West,9.2,-,N/A,,Overcast,260,2013-01-30 18:35:00
1:15 PM,55.4,46.4,72,29.65,10.0,SW,5.8,-,N/A,,Overcast,230,2013-01-30 19:15:00
1:35 PM,55.4,48.2,77,29.65,10.0,WSW,5.8,-,N/A,,Overcast,250,2013-01-30 19:35:00
1:55 PM,55.4,46.4,72,29.66,10.0,West,6.9,-,N/A,,Overcast,270,2013-01-30 19:55:00
2:15 PM,53.6,41.0,62,29.68,10.0,West,10.4,25.3,N/A,,Overcast,260,2013-01-30 20:15:00
2:55 PM,53.6,41.0,62,29.70,10.0,West,17.3,28.8,N/A,,Mostly Cloudy,260,2013-01-30 20:55:00
3:15 PM,53.6,37.4,54,29.70,10.0,West,15.0,25.3,N/A,,Mostly Cloudy,260,2013-01-30 21:15:00
3:35 PM,51.8,39.2,62,29.71,10.0,West,17.3,24.2,N/A,,Overcast,260,2013-01-30 21:35:00
4:15 PM,50.0,37.4,62,29.76,10.0,WNW,20.7,33.4,N/A,,Mostly Cloudy,290,2013-01-30 22:15:00
4:35 PM,46.4,39.2,76,29.78,10.0,West,17.3,35.7,N/A,,Overcast,280,2013-01-30 22:35:00
4:55 PM,44.6,39.2,81,29.79,10.0,West,17.3,25.3,N/A,,Overcast,270,2013-01-30 22:55:00
5:15 PM,44.6,37.4,76,29.82,10.0,West,15.0,27.6,N/A,,Mostly Cloudy,270,2013-01-30 23:15:00
5:35 PM,44.6,37.4,76,29.84,10.0,West,12.7,20.7,N/A,,Overcast,270,2013-01-30 23:35:00
5:55 PM,44.6,37.4,76,29.85,10.0,WNW,8.1,19.6,N/A,,Overcast,300,2013-01-30 23:55:00
6:15 PM,42.8,33.8,70,29.86,10.0,West,18.4,29.9,N/A,,Overcast,270,2013-01-31 00:15:00
6:55 PM,42.8,32.0,66,29.90,10.0,West,10.4,21.9,N/A,,Overcast,280,2013-01-31 00:55:00
7:15 PM,42.8,32.0,66,29.91,10.0,West,9.2,23.0,N/A,,Overcast,280,2013-01-31 01:15:00
7:35 PM,42.8,32.0,66,29.92,10.0,West,9.2,19.6,N/A,,Overcast,270,2013-01-31 01:35:00
7:55 PM,42.8,32.0,66,29.94,10.0,West,10.4,23.0,N/A,,Overcast,270,2013-01-31 01:55:00
8:15 PM,42.8,32.0,66,29.96,10.0,West,9.2,25.3,N/A,,Mostly Cloudy,280,2013-01-31 02:15:00
8:35 PM,42.8,30.2,61,29.97,10.0,West,9.2,23.0,N/A,,Scattered Clouds,270,2013-01-31 02:35:00
8:55 PM,41.0,30.2,65,29.99,10.0,West,11.5,23.0,N/A,,Scattered Clouds,280,2013-01-31 02:55:00
9:15 PM,41.0,28.4,61,30.01,10.0,West,10.4,21.9,N/A,,Clear,280,2013-01-31 03:15:00
9:55 PM,41.0,28.4,61,30.02,10.0,West,9.2,16.1,N/A,,Clear,280,2013-01-31 03:55:00
10:15 PM,41.0,28.4,61,30.03,10.0,WNW,8.1,-,N/A,,Clear,290,2013-01-31 04:15:00
10:35 PM,41.0,28.4,61,30.04,10.0,West,9.2,-,N/A,,Clear,280,2013-01-31 04:35:00
11:15 PM,39.2,28.4,65,30.05,10.0,West,8.1,-,N/A,,Clear,280,2013-01-31 05:15:00
11:35 PM,37.4,28.4,70,30.06,10.0,WNW,6.9,-,N/A,,Clear,290,2013-01-31 05:35:00
11:55 PM,37.4,28.4,70,30.07,10.0,West,5.8,-,N/A,,Clear,280,2013-01-31 05:55:00